QPF
0.00 0.00 0.00 0.00 0.00 0.00 0.00 0.00 0.00 0.00 0.00 0.00 0.00 0.00 0.00 0.00 0.00 0.00 0.00 0.00 0.00 0.00 0.00 0.00 0.00 0.00 0.00 0.00 0.00 0.00 0.00 0.00 0.00 0.00 0.00 0.00 0.00 0.00 0.00 0.00 0.00 0.00 0.00 0.00
0.00 0.00 0.00 0.00 0.00 0.00 0.00 0.00 0.00 0.00 0.00 0.00 0.00 0.00 0.00 0.00 0.00 0.00 0.00 0.00 0.00 0.00 0.00 0.00 0.00 0.00 0.00 0.00 0.00 0.00 0.00 0.00 0.00 0.00 0.00 0.00 0.00 0.00 0.00 0.00 0.00 0.00 0.00 0.00
0.00 0.00 0.00 0.00 0.00 0.00 0.00 0.00 0.00 0.00 0.00 0.00 0.00 0.00 0.00 0.00 0.00 0.00 0.00 0.00 0.00 0.00 0.00 0.00 0.00 0.00 0.00 0.00 0.00 0.00 0.00 0.00 0.00 0.00 0.00 0.00 0.00 0.00 0.00 0.00 0.00 0.00 0.00 0.00
0.00 0.00 0.00 0.00 0.00 0.00 0.00 0.00 0.00 0.00 0.00 0.00 0.00 0.00 0.00 0.00 0.00 0.00 0.00 0.00 0.00 0.00 0.00 0.00 0.00 0.00 0.00 0.00 0.00 0.00 0.00 0.00 0.00 0.00 0.00 0.00 0.00 0.00 0.00 0.00 0.00 0.00 0.00 0.00
0.00 0.00 0.00 0.00 0.00 0.00 0.00 0.00 0.00 0.00 0.00 0.00 0.00 0.00 0.00 0.00 0.00 0.00 0.00 0.00 0.00 0.00 0.00 0.00 0.00 0.00 0.00 0.00 0.00 0.00 0.00 0.00 0.00 0.00 0.00 0.00 0.00 0.00 0.00 0.00 0.00 0.00 0.00 0.00
0.00 0.00 0.00 0.00 0.00 0.00 0.00 0.00 0.00 0.00 0.00 0.00 0.00 0.00 0.00 0.00 0.00 0.00 0.00 0.00 0.00 0.00 0.00 0.00 0.00 0.00 0.00 0.00 0.00 0.00 0.00 0.00 0.00 0.00 0.00 0.00 0.00 0.00 0.00 0.00 0.00 0.00 0.00 0.00
0.00 0.00 0.00 0.00 0.00 0.00 0.00 0.00 0.00 0.00 0.00 0.00 0.00 0.00 0.00 0.00 0.00 0.00 0.00 0.00 0.00 0.00 0.00 0.00 0.00 0.00 0.00 0.00 0.00 0.00 0.00 0.00 0.00 0.00 0.00 0.00 0.00 0.00 0.00 0.00 0.00 0.00 0.00 0.00
0.00 0.00 0.00 0.00 0.00 0.00 0.00 0.00 0.00 0.00 0.00 0.00 0.00 0.00 0.00 0.00 0.00 0.00 0.00 0.00 0.00 0.00 0.00 0.00 0.00 0.00 0.00 0.00 0.00 0.00 0.00 0.00 0.00 0.00 0.00 0.00 0.00 0.00 0.00 0.00 0.00 0.00 0.00 0.00
0.00 0.00 0.00 0.00 0.00 0.00 0.00 0.00 0.00 0.00 0.00 0.00 0.00 0.00 0.00 0.00 0.00 0.00 0.00 0.00 0.00 0.00 0.00 0.00 0.00 0.00 0.00 0.00 0.00 0.00 0.00 0.00 0.00 0.00 0.00 0.00 0.00 0.00 0.00 0.00 0.00 0.00 0.00 0.00
0.00 0.00 0.00 0.00 0.00 0.00 0.00 0.00 0.00 0.00 0.00 0.00 0.00 0.00 0.00 0.00 0.00 0.00 0.00 0.00 0.00 0.00 0.00 0.00 0.00 0.00 0.00 0.00 0.00 0.00 0.00 0.00 0.00 0.00 0.00 0.00 0.00 0.00 0.00 0.00 0.00 0.00 0.00 0.00
0.00 0.00 0.00 0.00 0.00 0.00 0.00 0.00 0.00 0.00 0.00 0.00 0.00 0.00 0.00 0.00 0.00 0.00 0.00 0.00 0.00 0.00 0.00 0.00 0.00 0.00 0.00 0.00 0.00 0.00 0.00 0.00 0.00 0.00 0.00 0.00 0.00 0.00 0.00 0.00 0.00 0.00 0.00 0.00
0.00 0.00 0.00 0.00 0.00 0.00 0.00 0.00 0.00 0.00 0.00 0.00 0.00 0.00 0.00 0.00 0.00 0.00 0.00 0.00 0.00 0.00 0.00 0.00 0.00 0.00 0.00 0.00 0.00 0.00 0.00 0.00 0.00 0.00 0.00 0.00 0.00 0.00 0.00 0.00 0.00 0.00 0.00 0.00
0.00 0.00 0.00 0.00 0.00 0.00 0.00 0.00 0.00 0.00 0.00 0.00 0.00 0.00 0.00 0.00 0.00 0.00 0.00 0.00 0.00 0.00 0.00 0.00 0.00 0.00 0.00 0.00 0.00 0.00 0.00 0.00 0.00 0.00 0.00 0.00 0.00 0.00 0.00 0.00 0.00 0.00 0.00 0.00
0.00 0.00 0.00 0.00 0.00 0.00 0.00 0.00 0.00 0.00 0.00 0.00 0.00 0.00 0.00 0.00 0.00 0.00 0.00 0.00 0.00 0.00 0.00 0.00 0.00 0.00 0.00 0.00 0.00 0.00 0.00 0.00 0.00 0.00 0.00 0.00 0.00 0.00 0.00 0.00 0.00 0.00 0.00 0.00
0.00 0.00 0.00 0.00 0.00 0.00 0.00 0.00 0.00 0.00 0.00 0.00 0.00 0.00 0.00 0.00 0.00 0.00 0.00 0.00 0.00 0.00 0.00 0.00 0.00 0.00 0.00 0.00 0.00 0.00 0.00 0.00 0.00 0.00 0.00 0.00 0.00 0.00 0.00 0.00 0.00 0.00 0.00 0.00
0.00 0.00 0.00 0.00 0.00 0.00 0.00 0.00 0.00 0.00 0.00 0.00 0.00 0.00 0.00 0.00 0.00 0.00 0.00 0.00 0.00 0.00 0.00 0.00 0.00 0.00 0.00 0.00 0.00 0.00 0.00 0.00 0.00 0.00 0.00 0.00 0.00 0.00 0.00 0.00 0.00 0.00 0.00 0.00
0.00 0.00 0.00 0.00 0.00 0.00 0.00 0.00 0.00 0.00 0.00 0.00 0.00 0.00 0.00 0.00 0.00 0.00 0.00 0.00 0.00 0.00 0.00 0.00 0.00 0.00 0.00 0.00 0.00 0.00 0.00 0.00 0.00 0.00 0.00 0.00 0.00 0.00 0.00 0.00 0.00 0.00 0.00 0.00
0.00 0.00 0.00 0.00 0.00 0.00 0.00 0.00 0.00 0.00 0.00 0.00 0.00 0.00 0.00 0.00 0.00 0.00 0.00 0.00 0.00 0.00 0.00 0.00 0.00 0.00 0.00 0.00 0.00 0.00 0.00 0.00 0.00 0.00 0.00 0.00 0.00 0.00 0.00 0.00 0.00 0.00 0.00 0.00
0.00 0.00 0.00 0.00 0.00 0.00 0.00 0.00 0.00 0.00 0.00 0.00 0.00 0.00 0.00 0.00 0.00 0.00 0.00 0.00 0.00 0.00 0.00 0.00 0.00 0.00 0.00 0.00 0.00 0.00 0.00 0.00 0.00 0.00 0.00 0.00 0.00 0.00 0.00 0.00 0.00 0.00 0.00 0.00
0.01 0.01 0.00 0.00 0.00 0.00 0.00 0.00 0.00 0.00 0.00 0.00 0.00 0.00 0.00 0.00 0.00 0.00 0.00 0.00 0.00 0.00 0.00 0.00 0.00 0.00 0.00 0.00 0.00 0.00 0.00 0.00 0.00 0.00 0.00 0.00 0.00 0.00 0.00 0.00 0.00 0.00 0.00 0.00
0.01 0.01 0.00 0.00 0.00 0.00 0.00 0.00 0.00 0.00 0.00 0.00 0.00 0.00 0.00 0.00 0.00 0.00 0.00 0.00 0.00 0.00 0.00 0.00 0.00 0.00 0.00 0.00 0.00 0.00 0.00 0.00 0.00 0.00 0.00 0.00 0.00 0.00 0.00 0.00 0.00 0.00 0.00 0.00
0.00 0.00 0.00 0.00 0.00 0.00 0.00 0.00 0.00 0.00 0.00 0.00 0.00 0.00 0.00 0.00 0.00 0.00 0.00 0.00 0.00 0.00 0.00 0.00 0.00 0.00 0.00 0.00 0.00 0.00 0.00 0.00 0.00 0.00 0.00 0.00 0.00 0.00 0.00 0.00 0.00 0.00 0.00 0.00
0.01 0.00 0.00 0.00 0.00 0.00 0.00 0.00 0.00 0.00 0.00 0.00 0.00 0.00 0.00 0.00 0.00 0.00 0.00 0.00 0.00 0.00 0.00 0.00 0.00 0.00 0.00 0.00 0.00 0.00 0.00 0.00 0.00 0.00 0.00 0.00 0.00 0.00 0.00 0.00 0.00 0.00 0.00 0.00
0.01 0.01 0.01 0.01 0.00 0.00 0.00 0.00 0.00 0.00 0.00 0.00 0.00 0.00 0.00 0.00 0.00 0.00 0.00 0.00 0.00 0.00 0.00 0.00 0.00 0.00 0.00 0.00 0.00 0.00 0.00 0.00 0.00 0.00 0.00 0.00 0.00 0.00 0.00 0.00 0.00 0.00 0.00 0.00
0.01 0.01 0.01 0.01 0.01 0.01 0.01 0.01 0.00 0.00 0.00 0.00 0.00 0.00 0.00 0.00 0.00 0.00 0.00 0.00 0.00 0.00 0.00 0.00 0.00 0.00 0.00 0.00 0.00 0.00 0.00 0.00 0.00 0.00 0.00 0.00 0.00 0.00 0.00 0.00 0.00 0.00 0.00 0.00
0.01 0.01 0.01 0.01 0.01 0.01 0.00 0.01 0.01 0.00 0.00 0.00 0.00 0.00 0.00 0.00 0.00 0.00 0.00 0.00 0.00 0.00 0.00 0.00 0.00 0.00 0.00 0.00 0.00 0.00 0.00 0.00 0.00 0.00 0.00 0.00 0.00 0.00 0.00 0.00 0.00 0.00 0.00 0.00
0.01 0.01 0.01 0.01 0.02 0.02 0.01 0.01 0.01 0.00 0.00 0.00 0.00 0.00 0.00 0.00 0.00 0.00 0.00 0.00 0.00 0.00 0.00 0.00 0.00 0.00 0.00 0.00 0.00 0.00 0.00 0.00 0.00 0.00 0.00 0.00 0.00 0.00 0.00 0.00 0.00 0.00 0.00 0.00
MSLP
1014.14 1014.53 1014.90 1015.23 1015.49 1015.63 1015.63 1015.45 1015.10 1014.59 1013.96 1013.28 1012.61 1012.02 1011.56 1011.26 1011.14 1011.17 1011.32 1011.53 1011.76 1011.96 1012.11 1012.21 1012.27 1012.30 1012.34 1012.40 1012.50 1012.65 1012.84 1013.04 1013.25 1013.43 1013.58 1013.68 1013.75 1013.79 1013.80 1013.80 1013.79 1013.77 1013.75 1013.71
1014.29 1014.51 1014.66 1014.72 1014.70 1014.58 1014.35 1014.03 1013.62 1013.14 1012.63 1012.12 1011.66 1011.27 1010.99 1010.83 1010.77 1010.81 1010.91 1011.04 1011.18 1011.30 1011.41 1011.50 1011.58 1011.68 1011.80 1011.96 1012.15 1012.37 1012.60 1012.83 1013.03 1013.20 1013.32 1013.40 1013.45 1013.48 1013.49 1013.49 1013.49 1013.49 1013.46 1013.42
1014.43 1014.47 1014.39 1014.20 1013.91 1013.54 1013.11 1012.64 1012.17 1011.70 1011.28 1010.91 1010.61 1010.40 1010.27 1010.22 1010.23 1010.28 1010.35 1010.44 1010.53 1010.62 1010.71 1010.82 1010.96 1011.13 1011.34 1011.59 1011.86 1012.13 1012.39 1012.61 1012.79 1012.92 1013.01 1013.05 1013.07 1013.08 1013.08 1013.09 1013.09 1013.09 1013.07 1013.02
1014.51 1014.37 1014.08 1013.65 1013.13 1012.55 1011.94 1011.35 1010.81 1010.35 1009.97 1009.70 1009.52 1009.44 1009.43 1009.47 1009.54 1009.62 1009.71 1009.79 1009.88 1009.98 1010.10 1010.26 1010.47 1010.72 1011.02 1011.34 1011.66 1011.96 1012.22 1012.43 1012.57 1012.64 1012.67 1012.66 1012.64 1012.62 1012.61 1012.61 1012.62 1012.62 1012.59 1012.53
1014.45 1014.14 1013.67 1013.07 1012.37 1011.62 1010.88 1010.20 1009.60 1009.12 1008.77 1008.56 1008.46 1008.47 1008.54 1008.66 1008.79 1008.92 1009.05 1009.17 1009.30 1009.44 1009.63 1009.87 1010.15 1010.49 1010.86 1011.23 1011.58 1011.89 1012.13 1012.29 1012.38 1012.39 1012.36 1012.30 1012.24 1012.19 1012.16 1012.15 1012.15 1012.13 1012.10 1012.02
1014.18 1013.72 1013.12 1012.38 1011.57 1010.73 1009.91 1009.17 1008.54 1008.05 1007.72 1007.54 1007.49 1007.55 1007.69 1007.87 1008.06 1008.25 1008.44 1008.63 1008.83 1009.06 1009.33 1009.66 1010.03 1010.43 1010.85 1011.26 1011.62 1011.91 1012.12 1012.23 1012.26 1012.22 1012.14 1012.04 1011.94 1011.87 1011.82 1011.79 1011.77 1011.74 1011.68 1011.57
1013.61 1013.06 1012.37 1011.57 1010.71 1009.84 1009.00 1008.25 1007.62 1007.14 1006.82 1006.66 1006.65 1006.74 1006.92 1007.15 1007.41 1007.67 1007.94 1008.22 1008.51 1008.84 1009.20 1009.61 1010.05 1010.51 1010.96 1011.38 1011.74 1012.01 1012.18 1012.26 1012.25 1012.17 1012.06 1011.93 1011.82 1011.73 1011.67 1011.63 1011.59 1011.53 1011.43 1011.28
1012.76 1012.14 1011.42 1010.62 1009.78 1008.93 1008.13 1007.40 1006.80 1006.35 1006.06 1005.92 1005.93 1006.05 1006.27 1006.54 1006.86 1007.20 1007.55 1007.92 1008.31 1008.73 1009.18 1009.66 1010.16 1010.66 1011.13 1011.55 1011.89 1012.14 1012.29 1012.35 1012.33 1012.24 1012.13 1012.01 1011.91 1011.82 1011.76 1011.70 1011.63 1011.54 1011.39 1011.19
1011.69 1011.04 1010.34 1009.58 1008.80 1008.02 1007.28 1006.62 1006.07 1005.66 1005.39 1005.28 1005.30 1005.45 1005.70 1006.02 1006.40 1006.81 1007.25 1007.71 1008.19 1008.69 1009.22 1009.75 1010.29 1010.81 1011.28 1011.70 1012.03 1012.27 1012.42 1012.48 1012.48 1012.42 1012.34 1012.26 1012.18 1012.12 1012.06 1012.00 1011.91 1011.77 1011.58 1011.32
1010.52 1009.89 1009.22 1008.53 1007.82 1007.13 1006.48 1005.89 1005.39 1005.02 1004.78 1004.69 1004.73 1004.90 1005.18 1005.54 1005.97 1006.45 1006.97 1007.51 1008.07 1008.64 1009.22 1009.80 1010.36 1010.88 1011.36 1011.77 1012.10 1012.35 1012.52 1012.62 1012.66 1012.66 1012.64 1012.62 1012.59 1012.56 1012.53 1012.46 1012.35 1012.18 1011.93 1011.62
1009.42 1008.82 1008.21 1007.58 1006.95 1006.32 1005.73 1005.20 1004.75 1004.40 1004.18 1004.09 1004.15 1004.33 1004.63 1005.04 1005.52 1006.06 1006.64 1007.26 1007.88 1008.51 1009.14 1009.74 1010.31 1010.84 1011.32 1011.73 1012.07 1012.35 1012.55 1012.71 1012.82 1012.89 1012.95 1013.00 1013.04 1013.06 1013.04 1012.98 1012.86 1012.66 1012.38 1012.03
1008.55 1007.99 1007.42 1006.84 1006.25 1005.66 1005.10 1004.57 1004.13 1003.78 1003.54 1003.45 1003.50 1003.69 1004.01 1004.44 1004.97 1005.57 1006.22 1006.90 1007.58 1008.26 1008.92 1009.55 1010.14 1010.68 1011.16 1011.58 1011.95 1012.25 1012.51 1012.73 1012.91 1013.07 1013.21 1013.33 1013.42 1013.48 1013.49 1013.44 1013.31 1013.11 1012.81 1012.45
1008.02 1007.49 1006.94 1006.37 1005.77 1005.17 1004.58 1004.03 1003.54 1003.14 1002.87 1002.74 1002.77 1002.95 1003.28 1003.74 1004.31 1004.97 1005.67 1006.41 1007.16 1007.89 1008.59 1009.25 1009.85 1010.41 1010.91 1011.35 1011.74 1012.09 1012.40 1012.67 1012.92 1013.15 1013.35 1013.53 1013.67 1013.76 1013.80 1013.76 1013.64 1013.44 1013.15 1012.81
1007.84 1007.33 1006.77 1006.17 1005.54 1004.87 1004.21 1003.57 1003.00 1002.53 1002.19 1002.00 1001.99 1002.15 1002.48 1002.96 1003.57 1004.27 1005.03 1005.83 1006.63 1007.41 1008.16 1008.86 1009.50 1010.08 1010.61 1011.07 1011.50 1011.88 1012.23 1012.55 1012.85 1013.12 1013.37 1013.58 1013.74 1013.86 1013.91 1013.88 1013.78 1013.61 1013.36 1013.05
1007.96 1007.45 1006.87 1006.22 1005.50 1004.74 1003.97 1003.22 1002.54 1001.96 1001.53 1001.27 1001.21 1001.34 1001.66 1002.16 1002.79 1003.53 1004.35 1005.20 1006.06 1006.90 1007.70 1008.44 1009.12 1009.74 1010.30 1010.80 1011.26 1011.67 1012.05 1012.39 1012.71 1013.01 1013.26 1013.48 1013.66 1013.78 1013.83 1013.83 1013.75 1013.61 1013.42 1013.18
1008.27 1007.76 1007.15 1006.43 1005.62 1004.75 1003.86 1002.99 1002.19 1001.51 1000.98 1000.64 1000.53 1000.62 1000.92 1001.42 1002.07 1002.84 1003.70 1004.60 1005.51 1006.40 1007.25 1008.04 1008.77 1009.43 1010.03 1010.56 1011.04 1011.47 1011.87 1012.22 1012.54 1012.83 1013.08 1013.29 1013.45 1013.56 1013.62 1013.63 1013.59 1013.50 1013.36 1013.20
1008.65 1008.14 1007.49 1006.71 1005.82 1004.86 1003.86 1002.89 1001.98 1001.21 1000.60 1000.20 1000.02 1000.08 1000.36 1000.84 1001.49 1002.28 1003.16 1004.09 1005.04 1005.97 1006.87 1007.70 1008.47 1009.17 1009.80 1010.36 1010.86 1011.31 1011.70 1012.05 1012.36 1012.62 1012.85 1013.03 1013.18 1013.28 1013.34 1013.37 1013.35 1013.31 1013.23 1013.14
1008.98 1008.47 1007.80 1006.98 1006.04 1005.02 1003.95 1002.91 1001.95 1001.11 1000.44 999.99 999.77 999.79 1000.04 1000.50 1001.13 1001.91 1002.79 1003.73 1004.69 1005.64 1006.56 1007.43 1008.23 1008.96 1009.61 1010.19 1010.71 1011.15 1011.54 1011.88 1012.16 1012.40 1012.61 1012.77 1012.90 1012.99 1013.06 1013.10 1013.11 1013.10 1013.07 1013.03
1009.20 1008.69 1008.02 1007.20 1006.25 1005.21 1004.13 1003.07 1002.09 1001.23 1000.54 1000.06 999.81 999.79 1000.00 1000.42 1001.02 1001.76 1002.61 1003.52 1004.47 1005.42 1006.33 1007.21 1008.02 1008.76 1009.43 1010.02 1010.54 1010.98 1011.37 1011.69 1011.96 1012.18 1012.36 1012.51 1012.63 1012.72 1012.80 1012.85 1012.89 1012.91 1012.91 1012.88
1009.27 1008.79 1008.14 1007.34 1006.42 1005.41 1004.37 1003.35 1002.39 1001.55 1000.87 1000.38 1000.11 1000.06 1000.23 1000.59 1001.13 1001.81 1002.59 1003.46 1004.36 1005.26 1006.16 1007.01 1007.81 1008.55 1009.22 1009.81 1010.32 1010.77 1011.14 1011.46 1011.72 1011.94 1012.11 1012.26 1012.38 1012.48 1012.57 1012.64 1012.69 1012.73 1012.73 1012.70
1009.23 1008.77 1008.16 1007.41 1006.55 1005.62 1004.65 1003.69 1002.79 1002.00 1001.35 1000.88 1000.60 1000.52 1000.64 1000.94 1001.40 1002.00 1002.70 1003.48 1004.31 1005.16 1006.00 1006.81 1007.58 1008.30 1008.95 1009.53 1010.04 1010.48 1010.85 1011.17 1011.43 1011.65 1011.84 1011.99 1012.13 1012.25 1012.35 1012.44 1012.50 1012.53 1012.52 1012.47
1009.10 1008.66 1008.09 1007.41 1006.64 1005.79 1004.91 1004.05 1003.24 1002.51 1001.91 1001.46 1001.17 1001.06 1001.13 1001.36 1001.74 1002.24 1002.85 1003.54 1004.28 1005.05 1005.83 1006.59 1007.31 1007.99 1008.62 1009.18 1009.68 1010.11 1010.49 1010.80 1011.08 1011.31 1011.52 1011.69 1011.85 1011.99 1012.11 1012.21 1012.27 1012.30 1012.27 1012.18
1008.88 1008.46 1007.95 1007.34 1006.65 1005.90 1005.12 1004.36 1003.63 1002.97 1002.42 1001.99 1001.71 1001.58 1001.59 1001.76 1002.06 1002.47 1002.99 1003.59 1004.25 1004.94 1005.64 1006.34 1007.01 1007.65 1008.24 1008.78 1009.26 1009.69 1010.06 1010.39 1010.67 1010.92 1011.14 1011.35 1011.53 1011.69 1011.82 1011.92 1011.98 1011.99 1011.93 1011.81
1008.57 1008.18 1007.71 1007.17 1006.56 1005.90 1005.22 1004.54 1003.89 1003.30 1002.80 1002.40 1002.12 1001.97 1001.95 1002.06 1002.29 1002.63 1003.07 1003.60 1004.18 1004.80 1005.44 1006.08 1006.70 1007.30 1007.86 1008.37 1008.83 1009.24 1009.61 1009.94 1010.23 1010.49 1010.73 1010.95 1011.15 1011.32 1011.46 1011.56 1011.61 1011.60 1011.52 1011.36
1008.14 1007.78 1007.36 1006.87 1006.33 1005.75 1005.15 1004.55 1003.97 1003.44 1002.98 1002.60 1002.33 1002.17 1002.13 1002.21 1002.40 1002.69 1003.08 1003.55 1004.07 1004.64 1005.23 1005.83 1006.42 1006.98 1007.50 1007.99 1008.43 1008.82 1009.18 1009.50 1009.79 1010.06 1010.30 1010.53 1010.73 1010.90 1011.04 1011.14 1011.17 1011.14 1011.03 1010.84
1007.58 1007.25 1006.87 1006.43 1005.95 1005.43 1004.90 1004.36 1003.84 1003.36 1002.94 1002.60 1002.34 1002.19 1002.15 1002.21 1002.39 1002.66 1003.02 1003.46 1003.96 1004.50 1005.06 1005.62 1006.18 1006.71 1007.21 1007.67 1008.09 1008.46 1008.80 1009.11 1009.39 1009.65 1009.89 1010.11 1010.30 1010.47 1010.59 1010.67 1010.68 1010.62 1010.49 1010.27
1006.87 1006.57 1006.22 1005.83 1005.40 1004.94 1004.47 1003.98 1003.52 1003.09 1002.71 1002.40 1002.17 1002.05 1002.02 1002.10 1002.28 1002.55 1002.92 1003.35 1003.84 1004.37 1004.92 1005.47 1006.01 1006.52 1007.00 1007.43 1007.83 1008.18 1008.50 1008.79 1009.06 1009.30 1009.52 1009.72 1009.89 1010.03 1010.13 1010.18 1010.16 1010.08 1009.91 1009.67
Thickness
5695 5701 5701 5700 5699 5689 5685 5685 5678 5687 5691 5710 5720 5724 5728 5730 5729 5728 5726 5724 5722 5718 5716 5713 5711 5708 5706 5703 5701 5697 5693 5689 5686 5682 5679 5675 5672 5669 5666 5663 5660 5657 5654 5651
5695 5701 5696 5694 5699 5694 5692 5693 5690 5696 5701 5721 5726 5727 5727 5728 5727 5726 5725 5725 5723 5721 5717 5714 5711 5709 5706 5703 5701 5697 5693 5689 5686 5682 5679 5675 5672 5669 5666 5663 5660 5657 5654 5651
5677 5687 5692 5685 5700 5700 5699 5702 5701 5699 5715 5726 5725 5725 5728 5729 5728 5728 5728 5726 5724 5721 5718 5716 5713 5710 5706 5704 5700 5696 5692 5689 5685 5682 5678 5675 5672 5669 5666 5663 5660 5657 5654 5652
5669 5679 5671 5696 5717 5715 5710 5714 5714 5720 5726 5728 5732 5735 5736 5735 5732 5730 5729 5727 5725 5722 5719 5716 5713 5710 5706 5702 5698 5694 5691 5687 5684 5681 5677 5674 5671 5668 5665 5662 5659 5656 5654 5652
5659 5663 5672 5697 5714 5713 5708 5713 5726 5725 5731 5732 5732 5731 5732 5737 5736 5735 5733 5730 5726 5723 5719 5715 5712 5708 5704 5699 5695 5692 5688 5685 5682 5679 5675 5672 5669 5666 5664 5661 5659 5656 5654 5652
5655 5665 5666 5695 5720 5723 5716 5711 5735 5732 5731 5727 5724 5715 5727 5740 5737 5734 5732 5728 5724 5720 5716 5712 5709 5705 5700 5695 5692 5688 5686 5683 5680 5677 5673 5670 5667 5664 5662 5659 5657 5655 5653 5651
5655 5657 5673 5707 5717 5717 5699 5708 5738 5736 5733 5727 5728 5735 5742 5741 5736 5733 5729 5724 5720 5716 5711 5708 5705 5701 5696 5691 5688 5686 5683 5680 5677 5674 5671 5667 5664 5662 5659 5657 5654 5652 5650 5648
5650 5654 5672 5714 5710 5705 5713 5729 5734 5734 5733 5732 5734 5736 5736 5734 5731 5727 5722 5718 5714 5710 5705 5702 5699 5696 5691 5686 5684 5681 5678 5675 5672 5669 5667 5665 5661 5658 5656 5653 5650 5647 5645 5644
5669 5683 5704 5710 5712 5719 5722 5723 5729 5731 5733 5732 5729 5729 5729 5727 5724 5721 5717 5712 5708 5704 5698 5694 5692 5691 5686 5682 5680 5676 5673 5669 5666 5663 5660 5658 5655 5652 5650 5647 5644 5642 5639 5637
5669 5686 5699 5705 5710 5715 5719 5722 5728 5729 5730 5729 5727 5726 5723 5721 5717 5714 5710 5706 5701 5697 5692 5687 5685 5683 5680 5677 5674 5670 5666 5662 5659 5656 5653 5651 5648 5646 5643 5640 5637 5635 5633 5631
5665 5681 5692 5706 5710 5714 5718 5721 5723 5725 5727 5727 5725 5722 5720 5717 5713 5710 5705 5699 5695 5692 5687 5681 5678 5675 5673 5670 5668 5663 5658 5655 5651 5648 5645 5643 5640 5638 5636 5633 5631 5629 5626 5624
5664 5681 5680 5692 5706 5710 5711 5715 5718 5719 5721 5723 5722 5721 5717 5714 5710 5705 5699 5693 5688 5684 5679 5675 5671 5668 5666 5663 5661 5656 5651 5646 5643 5640 5637 5634 5631 5630 5629 5627 5626 5624 5622 5619
5668 5677 5679 5687 5696 5702 5704 5709 5713 5714 5717 5718 5719 5717 5714 5709 5703 5698 5693 5688 5683 5678 5673 5668 5664 5661 5658 5656 5653 5648 5643 5639 5635 5632 5628 5625 5622 5619 5617 5616 5616 5614 5613 5611
5659 5660 5665 5676 5683 5692 5696 5702 5705 5709 5712 5714 5714 5711 5708 5702 5697 5692 5688 5683 5677 5671 5666 5661 5657 5653 5650 5648 5644 5640 5635 5633 5627 5623 5619 5616 5613 5610 5607 5604 5602 5600 5601 5600
5646 5648 5653 5665 5673 5680 5686 5690 5694 5698 5702 5704 5704 5703 5701 5697 5692 5688 5681 5675 5668 5662 5657 5653 5649 5645 5642 5639 5635 5631 5627 5622 5618 5614 5610 5607 5603 5600 5597 5594 5591 5588 5587 5587
5630 5637 5643 5649 5658 5667 5672 5677 5682 5690 5693 5696 5696 5696 5695 5692 5686 5678 5672 5668 5662 5656 5650 5646 5641 5637 5634 5630 5626 5622 5618 5617 5611 5605 5601 5597 5594 5590 5587 5584 5581 5578 5577 5575
5611 5619 5627 5634 5643 5652 5660 5667 5674 5681 5684 5686 5688 5686 5682 5677 5671 5665 5661 5658 5654 5649 5643 5638 5633 5629 5625 5621 5617 5612 5609 5606 5604 5596 5591 5587 5584 5580 5577 5574 5571 5568 5566 5565
5595 5603 5611 5618 5628 5638 5648 5657 5663 5669 5673 5676 5675 5672 5670 5667 5664 5658 5651 5645 5639 5633 5629 5627 5623 5619 5615 5611 5607 5602 5598 5593 5589 5585 5581 5577 5573 5570 5566 5563 5560 5558 5555 5554
5583 5591 5599 5608 5616 5625 5634 5643 5650 5657 5661 5662 5661 5661 5661 5658 5653 5646 5640 5634 5630 5623 5618 5615 5614 5608 5604 5600 5597 5591 5587 5583 5578 5574 5570 5568 5563 5559 5555 5552 5550 5547 5545 5543
5568 5577 5585 5594 5603 5610 5619 5628 5635 5641 5646 5648 5647 5646 5643 5641 5637 5633 5628 5624 5622 5618 5611 5606 5602 5596 5592 5589 5586 5580 5576 5572 5567 5562 5558 5555 5551 5548 5544 5542 5539 5537 5534 5532
5550 5558 5567 5577 5586 5595 5603 5611 5618 5624 5629 5632 5633 5633 5630 5626 5622 5619 5614 5607 5603 5601 5598 5596 5588 5584 5580 5577 5575 5568 5564 5560 5556 5551 5548 5544 5540 5537 5534 5531 5529 5526 5524 5522
5534 5542 5550 5559 5568 5577 5586 5593 5600 5605 5610 5612 5614 5614 5612 5608 5605 5603 5601 5599 5592 5588 5585 5581 5576 5573 5570 5567 5560 5556 5552 5549 5544 5540 5536 5533 5529 5526 5523 5520 5517 5516 5513 5511
5519 5526 5534 5542 5550 5558 5567 5574 5580 5586 5590 5593 5595 5596 5596 5594 5593 5590 5584 5580 5579 5578 5571 5567 5565 5564 5560 5554 5548 5545 5541 5537 5533 5529 5526 5523 5519 5516 5513 5510 5507 5505 5503 5501
5507 5514 5520 5527 5534 5541 5549 5555 5560 5566 5570 5574 5576 5578 5578 5575 5573 5573 5573 5571 5569 5565 5558 5555 5554 5552 5548 5540 5536 5533 5529 5526 5522 5519 5516 5512 5509 5506 5503 5500 5497 5495 5493 5491
5495 5501 5507 5513 5518 5525 5531 5537 5542 5547 5551 5553 5556 5558 5560 5561 5560 5558 5557 5556 5555 5551 5544 5544 5543 5540 5533 5528 5525 5521 5518 5515 5512 5508 5505 5502 5499 5496 5493 5490 5488 5486 5483 5481
5483 5488 5495 5500 5505 5510 5515 5520 5525 5529 5533 5536 5538 5540 5542 5543 5544 5543 5542 5541 5539 5537 5532 5530 5528 5526 5520 5517 5514 5511 5507 5505 5502 5499 5495 5492 5489 5486 5483 5481 5479 5476 5474 5472
5473 5478 5484 5490 5496 5499 5503 5507 5512 5516 5519 5522 5524 5526 5527 5528 5529 5528 5528 5526 5524 5521 5518 5516 5514 5511 5508 5505 5503 5500 5497 5494 5491 5488 5485 5482 5479 5477 5474 5472 5469 5467 5465 5462